Location: Clermont
(50.2608°N, 4.3172°E)
Time: 03:29:39
(UTC+00:00)

CZ-2C R/B - Pass Details

Date: 13 August 2020
Orbit: 784 x 870 km, 98.3° (Epoch: 19 September)

Event Time Altitude Azimuth Distance (km) Brightness Sun altitude
Rises 20:23:29 0° 10° (N) 3,289 6.2 -11.5°
Reaches altitude 10° 20:25:52 10° 5° (N) 2,357 5.5 -11.8°
Maximum altitude 20:30:50 48° 292° (WNW) 1,026 3.6 -12.4°
Drops below altitude 10° 20:35:49 10° 219° (SW) 2,365 5.0 -13.0°
Sets 20:38:13 0° 214° (SW) 3,301 5.7 -13.3°
